Location: Izdebno
(52.6670°N, 16.2170°E)
Time: 11:29:27
(UTC+01:00)

Transit 2A - Pass Details

Date: 06 February 2023
Orbit: 591 x 964 km, 66.7° (Epoch: 21 March)

Event Time Altitude Azimuth Distance (km) Brightness Sun altitude
Rises 15:41:10 0° 181° (S) 3,010 9.7 7.9°
Reaches altitude 10° 15:43:37 10° 170° (S) 2,155 8.8 7.7°
Maximum altitude 15:47:47 28° 112° (ESE) 1,371 7.1 7.2°
Drops below altitude 10° 15:52:21 10° 54° (NE) 2,379 7.9 6.6°
Sets 15:55:11 0° 44° (NE) 3,384 8.7 6.3°
